Flag for U.S.A. Weather past 2 weeks in Sidney, Montana, U.S.A.

Now
23 °F

Overcast.


Feels Like: 17 °F
Forecast: 15 / 29 °F
Wind: 5 mph from Southeast

Location: Sidney-Richland

Current Time: Dec 18, 2014 at 12:52:57 AM

Latest Report: Dec 18, 2014 at 12:15 AM


Visibility: 10 mi

Pressure: 30.04 "Hg

Humidity: 86%

Dew point: 19 °F

Location of SidneyLocation

Historic Weather in Sidney — Graph

°F

Sidney temperature yesterday

Maximum temperature yesterday: 23 °F (at 9:55 PM)
Minimum temperature yesterday: 18 °F (at 4:15 AM)
Average temperature yesterday: 20 °F

Past Weeks' High & Low Weather Summary

 TemperatureHumidityPressure
High48 °F (Dec 12, 1:35 PM)100% (Dec 3, 7:55 AM)30.42 "Hg (Dec 3, 7:55 AM)
Low1 °F (Dec 3, 7:15 AM)54% (Dec 3, 1:15 PM)29.65 "Hg (Dec 13, 12:15 PM)
Average26 °F82%30.05 "Hg
* Reported Dec 2 11:15 PM — Dec 17 11:35 PM, Sidney, Weather by CustomWeather, © 2014

Note: Actual official high and low records may vary slightly from our data, if they occured in-between our weather recording intervals... More about our weather records

Advertising

Sidney weather history for previous 24 hours

 ConditionsComfort  
Time TempWeatherWind HumidityBarometerVisibility
11:35 PM
Dec 17
23 °FOvercast.5 mph86%30.04 "Hg10 mi
11:15 PM23 °FOvercast.7 mph80%30.05 "Hg10 mi
10:55 PM23 °FOvercast.5 mph80%30.06 "Hg10 mi
10:35 PM23 °FOvercast.7 mph80%30.05 "Hg10 mi
10:15 PM23 °FOvercast.6 mph80%30.05 "Hg10 mi
9:55 PM23 °FOvercast.8 mph80%30.05 "Hg10 mi
9:35 PM21 °FOvercast.9 mph86%30.05 "Hg10 mi
9:15 PM21 °FOvercast.6 mph86%30.06 "Hg10 mi
8:35 PM21 °FOvercast.5 mph86%30.06 "Hg10 mi
8:15 PM21 °FOvercast.6 mph86%30.07 "Hg10 mi
7:55 PM21 °FOvercast.5 mph86%30.07 "Hg10 mi
7:35 PM21 °FOvercast.6 mph80%30.07 "Hg10 mi
7:15 PM21 °FOvercast.8 mph80%30.07 "Hg10 mi
6:55 PM21 °FOvercast.8 mph80%30.08 "Hg10 mi
6:35 PM21 °FOvercast.8 mph80%30.08 "Hg10 mi
6:15 PM21 °FOvercast.10 mph80%30.08 "Hg10 mi
5:55 PM21 °FOvercast.12 mph80%30.08 "Hg10 mi
5:35 PM21 °FOvercast.9 mph86%30.08 "Hg10 mi
4:55 PM21 °FOvercast.9 mph80%30.09 "Hg10 mi
4:35 PM21 °FOvercast.9 mph80%30.09 "Hg10 mi
4:15 PM21 °FOvercast.9 mph80%30.09 "Hg10 mi
3:35 PM21 °FOvercast.9 mph86%30.09 "Hg10 mi
3:15 PM21 °FOvercast.10 mph86%30.09 "Hg10 mi
2:55 PM21 °FOvercast.9 mph80%30.09 "Hg10 mi
2:35 PM21 °FOvercast.10 mph80%30.09 "Hg10 mi
2:15 PM21 °FOvercast.10 mph80%30.10 "Hg10 mi
1:55 PM21 °FOvercast.12 mph80%30.09 "Hg10 mi
1:35 PM21 °FOvercast.12 mph86%30.09 "Hg10 mi
1:15 PM21 °FOvercast.14 mph86%30.10 "Hg10 mi
12:55 PM19 °FOvercast.12 mph86%30.10 "Hg10 mi
12:35 PM19 °FLow clouds.12 mph86%30.11 "Hg8 mi
12:15 PM21 °FLow clouds.10 mph86%30.12 "Hg10 mi
11:55 AM19 °FLow clouds.14 mph86%30.13 "Hg10 mi
11:35 AM19 °FLow clouds.12 mph86%30.13 "Hg10 mi
11:15 AM19 °FLow clouds.12 mph86%30.14 "Hg10 mi
10:55 AM19 °FLow clouds.12 mph86%30.14 "Hg10 mi
10:35 AM19 °FLow clouds.12 mph86%30.15 "Hg10 mi
10:15 AM19 °FLow clouds.14 mph86%30.16 "Hg10 mi
9:55 AM19 °FOvercast.10 mph93%30.16 "Hg10 mi
9:35 AM19 °FOvercast.9 mph86%30.16 "Hg10 mi
9:15 AM19 °FOvercast.14 mph86%30.16 "Hg10 mi
8:55 AM19 °FOvercast.15 mph86%30.17 "Hg10 mi
8:35 AM18 °FOvercast.12 mph79%30.17 "Hg10 mi
8:15 AM18 °FOvercast.10 mph79%30.16 "Hg10 mi
7:55 AM18 °FOvercast.13 mph86%30.17 "Hg10 mi
7:35 AM18 °FOvercast.12 mph86%30.17 "Hg10 mi
7:15 AM19 °FOvercast.10 mph79%30.17 "Hg10 mi
6:55 AM19 °FOvercast.12 mph86%30.17 "Hg10 mi
6:35 AM19 °FOvercast.10 mph73%30.17 "Hg10 mi
6:15 AM19 °FOvercast.10 mph79%30.17 "Hg10 mi
5:55 AM19 °FOvercast.12 mph79%30.16 "Hg10 mi
5:35 AM18 °FOvercast.12 mph86%30.17 "Hg10 mi
5:15 AM18 °FOvercast.10 mph93%30.17 "Hg10 mi
4:55 AM18 °FOvercast.12 mph86%30.17 "Hg10 mi
4:35 AM18 °FOvercast.10 mph86%30.16 "Hg10 mi
4:15 AM18 °FOvercast.9 mph86%30.16 "Hg10 mi
3:55 AM19 °FOvercast.13 mph79%30.17 "Hg10 mi
3:35 AM19 °FOvercast.10 mph79%30.18 "Hg10 mi
3:15 AM19 °FOvercast.10 mph79%30.19 "Hg10 mi
2:55 AM19 °FOvercast.12 mph86%30.19 "Hg10 mi
2:35 AM19 °FOvercast.10 mph86%30.19 "Hg10 mi
2:15 AM19 °FOvercast.9 mph79%30.19 "Hg10 mi
1:55 AM19 °FOvercast.14 mph79%30.19 "Hg10 mi
1:35 AM19 °FOvercast.12 mph86%30.19 "Hg10 mi
1:15 AM19 °FOvercast.9 mph86%30.19 "Hg10 mi
12:55 AM19 °FOvercast.7 mph79%30.19 "Hg10 mi
12:35 AM19 °FOvercast.12 mph86%30.20 "Hg10 mi
12:15 AM19 °FOvercast.9 mph86%30.21 "Hg10 mi
Weather by CustomWeather, © 2014

See weather overviewHow to use our weather pages